2017,08,22,00,00,00,297.6,,,,,,,,,,,,,,
2017,08,22,00,01,00,334.0,,,,,,,,,,,,,,
2017,08,22,00,02,00,379.3,,,,,,,,,,,,,,
2017,08,22,00,03,00,374.4,,,,,,,,,,,,,,
2017,08,22,00,04,00,389.5,,,,,,,,,,,,,,
2017,08,22,00,05,00,367.2,,,,,,,,,,,,,,
2017,08,22,00,06,00,333.7,,,,,,,,,,,,,,
2017,08,22,00,07,00,334.6,,,,,,,,,,,,,,
2017,08,22,00,08,00,338.8,,,,,,,,,,,,,,
2017,08,22,00,09,00,328.6,,,,,,,,,,,,,,
2017,08,22,00,10,00,321.0,,,,,,,,,,,,,,
2017,08,22,00,11,00,281.8,,,,,,,,,,,,,,
2017,08,22,00,12,00,254.1,,,,,,,,,,,,,,
2017,08,22,00,13,00,250.1,,,,,,,,,,,,,,
2017,08,22,00,14,00,243.4,,,,,,,,,,,,,,
2017,08,22,00,15,00,241.2,,,,,,,,,,,,,,
2017,08,22,00,16,00,240.2,,,,,,,,,,,,,,
2017,08,22,00,17,00,238.1,,,,,,,,,,,,,,
2017,08,22,00,18,00,234.3,,,,,,,,,,,,,,
2017,08,22,00,19,00,233.3,,,,,,,,,,,,,,
2017,08,22,00,20,00,224.0,,,,,,,,,,,,,,
2017,08,22,00,21,00,215.5,,,,,,,,,,,,,,
2017,08,22,00,22,00,208.6,,,,,,,,,,,,,,
2017,08,22,00,23,00,200.4,,,,,,,,,,,,,,
2017,08,22,00,24,00,193.6,,,,,,,,,,,,,,
2017,08,22,00,25,00,189.8,,,,,,,,,,,,,,
2017,08,22,00,26,00,192.2,,,,,,,,,,,,,,
2017,08,22,00,27,00,191.5,,,,,,,,,,,,,,
2017,08,22,00,28,00,196.1,,,,,,,,,,,,,,
2017,08,22,00,29,00,198.6,,,,,,,,,,,,,,
2017,08,22,00,30,00,199.6,,,,,,,,,,,,,,
2017,08,22,00,31,00,202.4,,,,,,,,,,,,,,
2017,08,22,00,32,00,196.2,,,,,,,,,,,,,,
2017,08,22,00,33,00,199.4,,,,,,,,,,,,,,
2017,08,22,00,34,00,214.8,,,,,,,,,,,,,,
2017,08,22,00,35,00,192.8,,,,,,,,,,,,,,
2017,08,22,00,36,00,194.9,,,,,,,,,,,,,,
2017,08,22,00,37,00,189.1,,,,,,,,,,,,,,
2017,08,22,00,38,00,189.1,,,,,,,,,,,,,,
2017,08,22,00,39,00,186.6,,,,,,,,,,,,,,
2017,08,22,00,40,00,204.8,,,,,,,,,,,,,,
2017,08,22,00,41,00,210.6,,,,,,,,,,,,,,
2017,08,22,00,42,00,207.6,,,,,,,,,,,,,,
2017,08,22,00,43,00,204.9,,,,,,,,,,,,,,
2017,08,22,00,44,00,208.5,,,,,,,,,,,,,,
2017,08,22,00,45,00,189.6,,,,,,,,,,,,,,
2017,08,22,00,46,00,169.9,,,,,,,,,,,,,,
2017,08,22,00,47,00,174.6,,,,,,,,,,,,,,
2017,08,22,00,48,00,173.5,,,,,,,,,,,,,,
2017,08,22,00,49,00,174.6,,,,,,,,,,,,,,
2017,08,22,00,50,00,184.3,,,,,,,,,,,,,,
2017,08,22,00,51,00,196.0,,,,,,,,,,,,,,
2017,08,22,00,52,00,234.3,,,,,,,,,,,,,,
2017,08,22,00,53,00,214.1,,,,,,,,,,,,,,
2017,08,22,00,54,00,207.7,,,,,,,,,,,,,,
2017,08,22,00,55,00,207.9,,,,,,,,,,,,,,
2017,08,22,00,56,00,215.2,,,,,,,,,,,,,,
2017,08,22,00,57,00,245.3,,,,,,,,,,,,,,
2017,08,22,00,58,00,231.2,,,,,,,,,,,,,,
2017,08,22,00,59,00,239.0,,,,,,,,,,,,,,
2017,08,22,01,00,00,213.2,,,,,,,,,,,,,,
2017,08,22,01,01,00,209.3,,,,,,,,,,,,,,
2017,08,22,01,02,00,219.0,,,,,,,,,,,,,,
2017,08,22,01,03,00,232.4,,,,,,,,,,,,,,
2017,08,22,01,04,00,237.8,,,,,,,,,,,,,,
2017,08,22,01,05,00,234.5,,,,,,,,,,,,,,
2017,08,22,01,06,00,237.7,,,,,,,,,,,,,,
2017,08,22,01,07,00,240.2,,,,,,,,,,,,,,
2017,08,22,01,08,00,247.9,,,,,,,,,,,,,,
2017,08,22,01,09,00,264.7,,,,,,,,,,,,,,
2017,08,22,01,10,00,305.0,,,,,,,,,,,,,,
2017,08,22,01,11,00,308.0,,,,,,,,,,,,,,
2017,08,22,01,12,00,293.5,,,,,,,,,,,,,,
2017,08,22,01,13,00,295.7,,,,,,,,,,,,,,
2017,08,22,01,14,00,286.3,,,,,,,,,,,,,,
2017,08,22,01,15,00,268.0,,,,,,,,,,,,,,
2017,08,22,01,16,00,243.4,,,,,,,,,,,,,,
2017,08,22,01,17,00,245.9,,,,,,,,,,,,,,
2017,08,22,01,18,00,230.3,,,,,,,,,,,,,,
2017,08,22,01,19,00,216.3,,,,,,,,,,,,,,
2017,08,22,01,20,00,244.6,,,,,,,,,,,,,,
2017,08,22,01,21,00,305.1,,,,,,,,,,,,,,
2017,08,22,01,22,00,324.9,,,,,,,,,,,,,,
2017,08,22,01,23,00,309.3,,,,,,,,,,,,,,
2017,08,22,01,24,00,295.4,,,,,,,,,,,,,,
2017,08,22,01,25,00,332.5,,,,,,,,,,,,,,
2017,08,22,01,26,00,374.8,,,,,,,,,,,,,,
2017,08,22,01,27,00,384.0,,,,,,,,,,,,,,
2017,08,22,01,28,00,369.7,,,,,,,,,,,,,,
2017,08,22,01,29,00,378.3,,,,,,,,,,,,,,
2017,08,22,01,30,00,381.6,,,,,,,,,,,,,,
2017,08,22,01,31,00,370.6,,,,,,,,,,,,,,
2017,08,22,01,32,00,371.6,,,,,,,,,,,,,,
2017,08,22,01,33,00,379.4,,,,,,,,,,,,,,
2017,08,22,01,34,00,403.0,,,,,,,,,,,,,,
2017,08,22,01,35,00,423.0,,,,,,,,,,,,,,
2017,08,22,01,36,00,416.2,,,,,,,,,,,,,,
2017,08,22,01,37,00,366.8,,,,,,,,,,,,,,
2017,08,22,01,38,00,280.3,,,,,,,,,,,,,,
2017,08,22,01,39,00,227.9,,,,,,,,,,,,,,
2017,08,22,01,40,00,206.2,,,,,,,,,,,,,,
2017,08,22,01,41,00,208.9,,,,,,,,,,,,,,
2017,08,22,01,42,00,202.1,,,,,,,,,,,,,,
2017,08,22,01,43,00,,,,,,,,,,,,,,,
2017,08,22,01,44,00,,,,,,,,,,,,,,,
2017,08,22,01,45,00,194.8,,,,,,,,,,,,,,
2017,08,22,01,46,00,189.2,,,,,,,,,,,,,,
2017,08,22,01,47,00,199.1,,,,,,,,,,,,,,
2017,08,22,01,48,00,223.0,,,,,,,,,,,,,,
2017,08,22,01,49,00,206.6,,,,,,,,,,,,,,
2017,08,22,01,50,00,198.1,,,,,,,,,,,,,,
2017,08,22,01,51,00,196.0,,,,,,,,,,,,,,
2017,08,22,01,52,00,189.7,,,,,,,,,,,,,,
2017,08,22,01,53,00,190.3,,,,,,,,,,,,,,
2017,08,22,01,54,00,194.5,,,,,,,,,,,,,,
2017,08,22,01,55,00,199.7,,,,,,,,,,,,,,
2017,08,22,01,56,00,195.2,,,,,,,,,,,,,,
2017,08,22,01,57,00,187.1,,,,,,,,,,,,,,
2017,08,22,01,58,00,166.4,,,,,,,,,,,,,,
2017,08,22,01,59,00,166.2,,,,,,,,,,,,,,
2017,08,22,02,00,00,168.8,,,,,,,,,,,,,,
2017,08,22,02,01,00,168.7,,,,,,,,,,,,,,
2017,08,22,02,02,00,186.0,,,,,,,,,,,,,,
2017,08,22,02,03,00,166.4,,,,,,,,,,,,,,
2017,08,22,02,04,00,171.8,,,,,,,,,,,,,,
2017,08,22,02,05,00,159.8,,,,,,,,,,,,,,
2017,08,22,02,06,00,157.5,,,,,,,,,,,,,,
2017,08,22,02,07,00,159.4,,,,,,,,,,,,,,
2017,08,22,02,08,00,156.7,,,,,,,,,,,,,,
2017,08,22,02,09,00,153.1,,,,,,,,,,,,,,
2017,08,22,02,10,00,152.2,,,,,,,,,,,,,,
2017,08,22,02,11,00,152.4,,,,,,,,,,,,,,
2017,08,22,02,12,00,150.9,,,,,,,,,,,,,,
2017,08,22,02,13,00,151.7,,,,,,,,,,,,,,
2017,08,22,02,14,00,158.8,,,,,,,,,,,,,,
2017,08,22,02,15,00,161.6,,,,,,,,,,,,,,
2017,08,22,02,16,00,152.4,,,,,,,,,,,,,,
2017,08,22,02,17,00,160.1,,,,,,,,,,,,,,
2017,08,22,02,18,00,167.7,,,,,,,,,,,,,,
2017,08,22,02,19,00,168.5,,,,,,,,,,,,,,
2017,08,22,02,20,00,159.1,,,,,,,,,,,,,,
2017,08,22,02,21,00,161.1,,,,,,,,,,,,,,
2017,08,22,02,22,00,195.1,,,,,,,,,,,,,,
2017,08,22,02,23,00,175.1,,,,,,,,,,,,,,
2017,08,22,02,24,00,173.2,,,,,,,,,,,,,,
2017,08,22,02,25,00,175.1,,,,,,,,,,,,,,
2017,08,22,02,26,00,182.9,,,,,,,,,,,,,,
2017,08,22,02,27,00,170.4,,,,,,,,,,,,,,
2017,08,22,02,28,00,168.1,,,,,,,,,,,,,,
2017,08,22,02,29,00,165.0,,,,,,,,,,,,,,
2017,08,22,02,30,00,169.5,,,,,,,,,,,,,,
2017,08,22,02,31,00,169.4,,,,,,,,,,,,,,
2017,08,22,02,32,00,159.7,,,,,,,,,,,,,,
2017,08,22,02,33,00,165.3,,,,,,,,,,,,,,
2017,08,22,02,34,00,161.4,,,,,,,,,,,,,,
2017,08,22,02,35,00,155.3,,,,,,,,,,,,,,
2017,08,22,02,36,00,158.4,,,,,,,,,,,,,,
2017,08,22,02,37,00,162.3,,,,,,,,,,,,,,
2017,08,22,02,38,00,163.2,,,,,,,,,,,,,,
2017,08,22,02,39,00,163.9,,,,,,,,,,,,,,
2017,08,22,02,40,00,163.5,,,,,,,,,,,,,,
2017,08,22,02,41,00,174.0,,,,,,,,,,,,,,
2017,08,22,02,42,00,190.0,,,,,,,,,,,,,,
2017,08,22,02,43,00,170.5,,,,,,,,,,,,,,
2017,08,22,02,44,00,167.7,,,,,,,,,,,,,,
2017,08,22,02,45,00,166.9,,,,,,,,,,,,,,
2017,08,22,02,46,00,170.6,,,,,,,,,,,,,,
2017,08,22,02,47,00,169.8,,,,,,,,,,,,,,
2017,08,22,02,48,00,163.8,,,,,,,,,,,,,,
2017,08,22,02,49,00,158.2,,,,,,,,,,,,,,
2017,08,22,02,50,00,160.4,,,,,,,,,,,,,,
2017,08,22,02,51,00,169.5,,,,,,,,,,,,,,
2017,08,22,02,52,00,168.4,,,,,,,,,,,,,,
2017,08,22,02,53,00,170.3,,,,,,,,,,,,,,
2017,08,22,02,54,00,191.0,,,,,,,,,,,,,,
2017,08,22,02,55,00,168.8,,,,,,,,,,,,,,
2017,08,22,02,56,00,168.0,,,,,,,,,,,,,,
2017,08,22,02,57,00,169.5,,,,,,,,,,,,,,
2017,08,22,02,58,00,178.6,,,,,,,,,,,,,,
2017,08,22,02,59,00,186.7,,,,,,,,,,,,,,
2017,08,22,03,00,00,178.6,,,,,,,,,,,,,,
2017,08,22,03,01,00,194.7,,,,,,,,,,,,,,
2017,08,22,03,02,00,198.4,,,,,,,,,,,,,,
2017,08,22,03,03,00,216.8,,,,,,,,,,,,,,
2017,08,22,03,04,00,231.3,,,,,,,,,,,,,,
2017,08,22,03,05,00,284.7,,,,,,,,,,,,,,
2017,08,22,03,06,00,278.5,,,,,,,,,,,,,,
2017,08,22,03,07,00,254.3,,,,,,,,,,,,,,
2017,08,22,03,08,00,225.8,,,,,,,,,,,,,,
2017,08,22,03,09,00,195.9,,,,,,,,,,,,,,
2017,08,22,03,10,00,189.2,,,,,,,,,,,,,,
2017,08,22,03,11,00,197.7,,,,,,,,,,,,,,
2017,08,22,03,12,00,196.0,,,,,,,,,,,,,,
2017,08,22,03,13,00,208.3,,,,,,,,,,,,,,
2017,08,22,03,14,00,202.8,,,,,,,,,,,,,,
2017,08,22,03,15,00,201.3,,,,,,,,,,,,,,
2017,08,22,03,16,00,189.5,,,,,,,,,,,,,,
2017,08,22,03,17,00,188.3,,,,,,,,,,,,,,
2017,08,22,03,18,00,197.5,,,,,,,,,,,,,,
2017,08,22,03,19,00,206.6,,,,,,,,,,,,,,
2017,08,22,03,20,00,,,,,,,,,,,,,,,
2017,08,22,03,21,00,,,,,,,,,,,,,,,
2017,08,22,03,22,00,236.4,,,,,,,,,,,,,,
2017,08,22,03,23,00,200.3,,,,,,,,,,,,,,
2017,08,22,03,24,00,210.8,,,,,,,,,,,,,,
2017,08,22,03,25,00,196.1,,,,,,,,,,,,,,
2017,08,22,03,26,00,200.3,,,,,,,,,,,,,,
2017,08,22,03,27,00,202.3,,,,,,,,,,,,,,
2017,08,22,03,28,00,206.7,,,,,,,,,,,,,,
2017,08,22,03,29,00,195.7,,,,,,,,,,,,,,
2017,08,22,03,30,00,199.5,,,,,,,,,,,,,,
2017,08,22,03,31,00,225.4,,,,,,,,,,,,,,
2017,08,22,03,32,00,217.1,,,,,,,,,,,,,,
2017,08,22,03,33,00,195.0,,,,,,,,,,,,,,
2017,08,22,03,34,00,207.5,,,,,,,,,,,,,,
2017,08,22,03,35,00,213.9,,,,,,,,,,,,,,
2017,08,22,03,36,00,230.9,,,,,,,,,,,,,,
2017,08,22,03,37,00,218.1,,,,,,,,,,,,,,
2017,08,22,03,38,00,196.3,,,,,,,,,,,,,,
2017,08,22,03,39,00,180.6,,,,,,,,,,,,,,
2017,08,22,03,40,00,174.8,,,,,,,,,,,,,,
2017,08,22,03,41,00,166.1,,,,,,,,,,,,,,
2017,08,22,03,42,00,169.2,,,,,,,,,,,,,,
2017,08,22,03,43,00,168.8,,,,,,,,,,,,,,
2017,08,22,03,44,00,189.9,,,,,,,,,,,,,,
2017,08,22,03,45,00,196.6,,,,,,,,,,,,,,
2017,08,22,03,46,00,186.5,,,,,,,,,,,,,,
2017,08,22,03,47,00,180.7,,,,,,,,,,,,,,
2017,08,22,03,48,00,187.1,,,,,,,,,,,,,,
2017,08,22,03,49,00,185.3,,,,,,,,,,,,,,
2017,08,22,03,50,00,184.9,,,,,,,,,,,,,,
2017,08,22,03,51,00,171.3,,,,,,,,,,,,,,
2017,08,22,03,52,00,178.1,,,,,,,,,,,,,,
2017,08,22,03,53,00,185.1,,,,,,,,,,,,,,
2017,08,22,03,54,00,196.5,,,,,,,,,,,,,,
2017,08,22,03,55,00,203.2,,,,,,,,,,,,,,
2017,08,22,03,56,00,222.1,,,,,,,,,,,,,,
2017,08,22,03,57,00,178.9,,,,,,,,,,,,,,
2017,08,22,03,58,00,169.3,,,,,,,,,,,,,,
2017,08,22,03,59,00,181.9,,,,,,,,,,,,,,
2017,08,22,04,00,00,193.0,,,,,,,,,,,,,,
2017,08,22,04,01,00,199.2,,,,,,,,,,,,,,
2017,08,22,04,02,00,200.7,,,,,,,,,,,,,,
2017,08,22,04,03,00,198.2,,,,,,,,,,,,,,
2017,08,22,04,04,00,209.5,,,,,,,,,,,,,,
2017,08,22,04,05,00,262.0,,,,,,,,,,,,,,
2017,08,22,04,06,00,232.5,,,,,,,,,,,,,,
2017,08,22,04,07,00,213.7,,,,,,,,,,,,,,
2017,08,22,04,08,00,203.6,,,,,,,,,,,,,,
2017,08,22,04,09,00,193.9,,,,,,,,,,,,,,
2017,08,22,04,10,00,239.6,,,,,,,,,,,,,,
2017,08,22,04,11,00,274.2,,,,,,,,,,,,,,
2017,08,22,04,12,00,228.5,,,,,,,,,,,,,,
2017,08,22,04,13,00,210.1,,,,,,,,,,,,,,
2017,08,22,04,14,00,221.9,,,,,,,,,,,,,,
2017,08,22,04,15,00,265.2,,,,,,,,,,,,,,
2017,08,22,04,16,00,214.9,,,,,,,,,,,,,,
2017,08,22,04,17,00,216.4,,,,,,,,,,,,,,
2017,08,22,04,18,00,228.0,,,,,,,,,,,,,,
2017,08,22,04,19,00,259.4,,,,,,,,,,,,,,
2017,08,22,04,20,00,228.4,,,,,,,,,,,,,,
2017,08,22,04,21,00,247.7,,,,,,,,,,,,,,
2017,08,22,04,22,00,230.6,,,,,,,,,,,,,,
2017,08,22,04,23,00,216.8,,,,,,,,,,,,,,
2017,08,22,04,24,00,234.9,,,,,,,,,,,,,,
2017,08,22,04,25,00,239.5,,,,,,,,,,,,,,
2017,08,22,04,26,00,231.2,,,,,,,,,,,,,,
2017,08,22,04,27,00,225.6,,,,,,,,,,,,,,
2017,08,22,04,28,00,269.8,,,,,,,,,,,,,,
2017,08,22,04,29,00,292.9,,,,,,,,,,,,,,
2017,08,22,04,30,00,293.7,,,,,,,,,,,,,,
2017,08,22,04,31,00,254.5,,,,,,,,,,,,,,
2017,08,22,04,32,00,243.4,,,,,,,,,,,,,,
2017,08,22,04,33,00,260.6,,,,,,,,,,,,,,
2017,08,22,04,34,00,267.9,,,,,,,,,,,,,,
2017,08,22,04,35,00,214.7,,,,,,,,,,,,,,
2017,08,22,04,36,00,222.6,,,,,,,,,,,,,,
2017,08,22,04,37,00,233.8,,,,,,,,,,,,,,
2017,08,22,04,38,00,224.0,,,,,,,,,,,,,,
2017,08,22,04,39,00,229.4,,,,,,,,,,,,,,
2017,08,22,04,40,00,238.9,,,,,,,,,,,,,,
2017,08,22,04,41,00,215.5,,,,,,,,,,,,,,
2017,08,22,04,42,00,195.6,,,,,,,,,,,,,,
2017,08,22,04,43,00,189.9,,,,,,,,,,,,,,
2017,08,22,04,44,00,214.3,,,,,,,,,,,,,,
2017,08,22,04,45,00,230.9,,,,,,,,,,,,,,
2017,08,22,04,46,00,239.1,,,,,,,,,,,,,,
2017,08,22,04,47,00,282.3,,,,,,,,,,,,,,
2017,08,22,04,48,00,299.5,,,,,,,,,,,,,,
2017,08,22,04,49,00,287.9,,,,,,,,,,,,,,
2017,08,22,04,50,00,304.9,,,,,,,,,,,,,,
2017,08,22,04,51,00,301.7,,,,,,,,,,,,,,
2017,08,22,04,52,00,342.3,,,,,,,,,,,,,,
2017,08,22,04,53,00,424.6,,,,,,,,,,,,,,
2017,08,22,04,54,00,322.6,,,,,,,,,,,,,,
2017,08,22,04,55,00,276.9,,,,,,,,,,,,,,
2017,08,22,04,56,00,283.6,,,,,,,,,,,,,,
2017,08,22,04,57,00,312.8,,,,,,,,,,,,,,
2017,08,22,04,58,00,389.7,,,,,,,,,,,,,,
2017,08,22,04,59,00,397.1,,,,,,,,,,,,,,
2017,08,22,05,00,00,371.6,,,,,,,,,,,,,,
2017,08,22,05,01,00,383.6,,,,,,,,,,,,,,
2017,08,22,05,02,00,434.9,,,,,,,,,,,,,,
2017,08,22,05,03,00,421.1,,,,,,,,,,,,,,
2017,08,22,05,04,00,409.3,,,,,,,,,,,,,,
2017,08,22,05,05,00,425.0,,,,,,,,,,,,,,
2017,08,22,05,06,00,442.6,,,,,,,,,,,,,,
2017,08,22,05,07,00,425.7,,,,,,,,,,,,,,
2017,08,22,05,08,00,355.0,,,,,,,,,,,,,,
2017,08,22,05,09,00,331.5,,,,,,,,,,,,,,
2017,08,22,05,10,00,353.3,,,,,,,,,,,,,,
2017,08,22,05,11,00,366.4,,,,,,,,,,,,,,
2017,08,22,05,12,00,387.6,,,,,,,,,,,,,,
2017,08,22,05,13,00,446.5,,,,,,,,,,,,,,
2017,08,22,05,14,00,471.1,,,,,,,,,,,,,,
2017,08,22,05,15,00,457.6,,,,,,,,,,,,,,
2017,08,22,05,16,00,428.3,,,,,,,,,,,,,,
2017,08,22,05,17,00,378.7,,,,,,,,,,,,,,
2017,08,22,05,18,00,399.6,,,,,,,,,,,,,,
2017,08,22,05,19,00,334.3,,,,,,,,,,,,,,
2017,08,22,05,20,00,384.3,,,,,,,,,,,,,,
2017,08,22,05,21,00,379.2,,,,,,,,,,,,,,
2017,08,22,05,22,00,299.3,,,,,,,,,,,,,,
2017,08,22,05,23,00,301.1,,,,,,,,,,,,,,
2017,08,22,05,24,00,285.4,,,,,,,,,,,,,,
2017,08,22,05,25,00,278.9,,,,,,,,,,,,,,
2017,08,22,05,26,00,292.5,,,,,,,,,,,,,,
2017,08,22,05,27,00,323.9,,,,,,,,,,,,,,
2017,08,22,05,28,00,338.6,,,,,,,,,,,,,,
2017,08,22,05,29,00,365.8,,,,,,,,,,,,,,
2017,08,22,05,30,00,353.2,,,,,,,,,,,,,,
2017,08,22,05,31,00,358.1,,,,,,,,,,,,,,
2017,08,22,05,32,00,292.4,,,,,,,,,,,,,,
2017,08,22,05,33,00,281.3,,,,,,,,,,,,,,
2017,08,22,05,34,00,279.2,,,,,,,,,,,,,,
2017,08,22,05,35,00,285.1,,,,,,,,,,,,,,
2017,08,22,05,36,00,307.8,,,,,,,,,,,,,,
2017,08,22,05,37,00,305.5,,,,,,,,,,,,,,
2017,08,22,05,38,00,312.4,,,,,,,,,,,,,,
2017,08,22,05,39,00,320.3,,,,,,,,,,,,,,
2017,08,22,05,40,00,324.4,,,,,,,,,,,,,,
2017,08,22,05,41,00,329.2,,,,,,,,,,,,,,
2017,08,22,05,42,00,359.0,,,,,,,,,,,,,,
2017,08,22,05,43,00,370.6,,,,,,,,,,,,,,
2017,08,22,05,44,00,324.6,,,,,,,,,,,,,,
2017,08,22,05,45,00,309.8,,,,,,,,,,,,,,
2017,08,22,05,46,00,317.3,,,,,,,,,,,,,,
2017,08,22,05,47,00,304.6,,,,,,,,,,,,,,
2017,08,22,05,48,00,312.9,,,,,,,,,,,,,,
2017,08,22,05,49,00,297.4,,,,,,,,,,,,,,
2017,08,22,05,50,00,284.2,,,,,,,,,,,,,,
2017,08,22,05,51,00,296.9,,,,,,,,,,,,,,
2017,08,22,05,52,00,311.7,,,,,,,,,,,,,,
2017,08,22,05,53,00,359.1,,,,,,,,,,,,,,
2017,08,22,05,54,00,373.5,,,,,,,,,,,,,,
2017,08,22,05,55,00,382.8,,,,,,,,,,,,,,
2017,08,22,05,56,00,355.6,,,,,,,,,,,,,,
2017,08,22,05,57,00,313.1,,,,,,,,,,,,,,
2017,08,22,05,58,00,307.5,,,,,,,,,,,,,,
2017,08,22,05,59,00,268.0,,,,,,,,,,,,,,
2017,08,22,06,00,00,302.8,,,,,,,,,,,,,,
2017,08,22,06,01,00,307.5,,,,,,,,,,,,,,
2017,08,22,06,02,00,268.8,,,,,,,,,,,,,,
2017,08,22,06,03,00,289.0,,,,,,,,,,,,,,
2017,08,22,06,04,00,299.3,,,,,,,,,,,,,,
2017,08,22,06,05,00,276.6,,,,,,,,,,,,,,
2017,08,22,06,06,00,279.4,,,,,,,,,,,,,,
2017,08,22,06,07,00,294.7,,,,,,,,,,,,,,
2017,08,22,06,08,00,294.0,,,,,,,,,,,,,,
2017,08,22,06,09,00,308.1,,,,,,,,,,,,,,
2017,08,22,06,10,00,311.2,,,,,,,,,,,,,,
2017,08,22,06,11,00,357.9,,,,,,,,,,,,,,
2017,08,22,06,12,00,384.6,,,,,,,,,,,,,,
2017,08,22,06,13,00,344.5,,,,,,,,,,,,,,
2017,08,22,06,14,00,287.4,,,,,,,,,,,,,,
2017,08,22,06,15,00,255.1,,,,,,,,,,,,,,
2017,08,22,06,16,00,255.3,,,,,,,,,,,,,,
2017,08,22,06,17,00,207.4,,,,,,,,,,,,,,
2017,08,22,06,18,00,194.6,,,,,,,,,,,,,,
2017,08,22,06,19,00,180.1,,,,,,,,,,,,,,
2017,08,22,06,20,00,187.9,,,,,,,,,,,,,,
2017,08,22,06,21,00,196.7,,,,,,,,,,,,,,
2017,08,22,06,22,00,194.1,,,,,,,,,,,,,,
2017,08,22,06,23,00,190.2,,,,,,,,,,,,,,
2017,08,22,06,24,00,190.8,,,,,,,,,,,,,,
2017,08,22,06,25,00,223.7,,,,,,,,,,,,,,
2017,08,22,06,26,00,236.3,,,,,,,,,,,,,,
2017,08,22,06,27,00,209.6,,,,,,,,,,,,,,
2017,08,22,06,28,00,,,,,,,,,,,,,,,
2017,08,22,06,29,00,,,,,,,,,,,,,,,
2017,08,22,06,30,00,,,,,,,,,,,,,,,
2017,08,22,06,31,00,,,,,,,,,,,,,,,
2017,08,22,06,32,00,,,,,,,,,,,,,,,
2017,08,22,06,33,00,,,,,,,,,,,,,,,
2017,08,22,06,34,00,,,,,,,,,,,,,,,
2017,08,22,06,35,00,,,,,,,,,,,,,,,
2017,08,22,06,36,00,,,,,,,,,,,,,,,
2017,08,22,06,37,00,,,,,,,,,,,,,,,
2017,08,22,06,38,00,,,,,,,,,,,,,,,
2017,08,22,06,39,00,,,,,,,,,,,,,,,
2017,08,22,06,40,00,,,,,,,,,,,,,,,
2017,08,22,06,41,00,,,,,,,,,,,,,,,
2017,08,22,06,42,00,,,,,,,,,,,,,,,
2017,08,22,06,43,00,,,,,,,,,,,,,,,
2017,08,22,06,44,00,,,,,,,,,,,,,,,
2017,08,22,06,45,00,,,,,,,,,,,,,,,
2017,08,22,06,46,00,,,,,,,,,,,,,,,
2017,08,22,06,47,00,,,,,,,,,,,,,,,
2017,08,22,06,48,00,,,,,,,,,,,,,,,
2017,08,22,06,49,00,,,,,,,,,,,,,,,
2017,08,22,06,50,00,,,,,,,,,,,,,,,
2017,08,22,06,51,00,,,,,,,,,,,,,,,
2017,08,22,06,52,00,,,,,,,,,,,,,,,
2017,08,22,06,53,00,,,,,,,,,,,,,,,
2017,08,22,06,54,00,,,,,,,,,,,,,,,
2017,08,22,06,55,00,,,,,,,,,,,,,,,
2017,08,22,06,56,00,,,,,,,,,,,,,,,
2017,08,22,06,57,00,,,,,,,,,,,,,,,
2017,08,22,06,58,00,,,,,,,,,,,,,,,
2017,08,22,06,59,00,,,,,,,,,,,,,,,
2017,08,22,07,00,00,,,,,,,,,,,,,,,
2017,08,22,07,01,00,,,,,,,,,,,,,,,
2017,08,22,07,02,00,,,,,,,,,,,,,,,
2017,08,22,07,03,00,,,,,,,,,,,,,,,
2017,08,22,07,04,00,,,,,,,,,,,,,,,
2017,08,22,07,05,00,,,,,,,,,,,,,,,
2017,08,22,07,06,00,,,,,,,,,,,,,,,
2017,08,22,07,07,00,,,,,,,,,,,,,,,
2017,08,22,07,08,00,,,,,,,,,,,,,,,
2017,08,22,07,09,00,,,,,,,,,,,,,,,
2017,08,22,07,10,00,,,,,,,,,,,,,,,
2017,08,22,07,11,00,,,,,,,,,,,,,,,
2017,08,22,07,12,00,,,,,,,,,,,,,,,
2017,08,22,07,13,00,,,,,,,,,,,,,,,
2017,08,22,07,14,00,,,,,,,,,,,,,,,
2017,08,22,07,15,00,,,,,,,,,,,,,,,
2017,08,22,07,16,00,,,,,,,,,,,,,,,
2017,08,22,07,17,00,,,,,,,,,,,,,,,
2017,08,22,07,18,00,,,,,,,,,,,,,,,
2017,08,22,07,19,00,267.7,,,,,,,,,,,,,,
2017,08,22,07,20,00,260.4,,,,,,,,,,,,,,
2017,08,22,07,21,00,257.9,,,,,,,,,,,,,,
2017,08,22,07,22,00,273.3,,,,,,,,,,,,,,
2017,08,22,07,23,00,276.2,,,,,,,,,,,,,,
2017,08,22,07,24,00,288.2,,,,,,,,,,,,,,
2017,08,22,07,25,00,287.4,,,,,,,,,,,,,,
2017,08,22,07,26,00,294.1,,,,,,,,,,,,,,
2017,08,22,07,27,00,317.8,,,,,,,,,,,,,,
2017,08,22,07,28,00,282.2,,,,,,,,,,,,,,
2017,08,22,07,29,00,270.6,,,,,,,,,,,,,,
2017,08,22,07,30,00,253.1,,,,,,,,,,,,,,
2017,08,22,07,31,00,285.9,,,,,,,,,,,,,,
2017,08,22,07,32,00,280.1,,,,,,,,,,,,,,
2017,08,22,07,33,00,250.7,,,,,,,,,,,,,,
2017,08,22,07,34,00,267.0,,,,,,,,,,,,,,
2017,08,22,07,35,00,263.7,,,,,,,,,,,,,,
2017,08,22,07,36,00,277.9,,,,,,,,,,,,,,
2017,08,22,07,37,00,277.6,,,,,,,,,,,,,,
2017,08,22,07,38,00,302.9,,,,,,,,,,,,,,
2017,08,22,07,39,00,285.2,,,,,,,,,,,,,,
2017,08,22,07,40,00,309.6,,,,,,,,,,,,,,
2017,08,22,07,41,00,314.7,,,,,,,,,,,,,,
2017,08,22,07,42,00,301.2,,,,,,,,,,,,,,
2017,08,22,07,43,00,317.0,,,,,,,,,,,,,,
2017,08,22,07,44,00,304.0,,,,,,,,,,,,,,
2017,08,22,07,45,00,292.6,,,,,,,,,,,,,,
2017,08,22,07,46,00,310.4,,,,,,,,,,,,,,
2017,08,22,07,47,00,308.2,,,,,,,,,,,,,,
2017,08,22,07,48,00,300.4,,,,,,,,,,,,,,
2017,08,22,07,49,00,315.9,,,,,,,,,,,,,,
2017,08,22,07,50,00,341.4,,,,,,,,,,,,,,
2017,08,22,07,51,00,334.8,,,,,,,,,,,,,,
2017,08,22,07,52,00,313.0,,,,,,,,,,,,,,
2017,08,22,07,53,00,319.3,,,,,,,,,,,,,,
2017,08,22,07,54,00,340.1,,,,,,,,,,,,,,
2017,08,22,07,55,00,314.5,,,,,,,,,,,,,,
2017,08,22,07,56,00,325.7,,,,,,,,,,,,,,
2017,08,22,07,57,00,362.3,,,,,,,,,,,,,,
2017,08,22,07,58,00,315.3,,,,,,,,,,,,,,
2017,08,22,07,59,00,303.7,,,,,,,,,,,,,,
2017,08,22,08,00,00,309.8,,,,,,,,,,,,,,
2017,08,22,08,01,00,338.2,,,,,,,,,,,,,,
2017,08,22,08,02,00,336.6,,,,,,,,,,,,,,
2017,08,22,08,03,00,307.4,,,,,,,,,,,,,,
2017,08,22,08,04,00,278.4,,,,,,,,,,,,,,
2017,08,22,08,05,00,278.9,,,,,,,,,,,,,,
2017,08,22,08,06,00,293.7,,,,,,,,,,,,,,
2017,08,22,08,07,00,312.1,,,,,,,,,,,,,,
2017,08,22,08,08,00,292.3,,,,,,,,,,,,,,
2017,08,22,08,09,00,273.0,,,,,,,,,,,,,,
2017,08,22,08,10,00,268.4,,,,,,,,,,,,,,
2017,08,22,08,11,00,244.0,,,,,,,,,,,,,,
2017,08,22,08,12,00,232.9,,,,,,,,,,,,,,
2017,08,22,08,13,00,229.4,,,,,,,,,,,,,,
2017,08,22,08,14,00,202.8,,,,,,,,,,,,,,
2017,08,22,08,15,00,216.3,,,,,,,,,,,,,,
2017,08,22,08,16,00,198.0,,,,,,,,,,,,,,
2017,08,22,08,17,00,189.0,,,,,,,,,,,,,,
2017,08,22,08,18,00,185.2,,,,,,,,,,,,,,
2017,08,22,08,19,00,187.8,,,,,,,,,,,,,,
2017,08,22,08,20,00,186.9,,,,,,,,,,,,,,
2017,08,22,08,21,00,204.1,,,,,,,,,,,,,,
2017,08,22,08,22,00,200.0,,,,,,,,,,,,,,
2017,08,22,08,23,00,205.1,,,,,,,,,,,,,,
2017,08,22,08,24,00,216.2,,,,,,,,,,,,,,
2017,08,22,08,25,00,238.8,,,,,,,,,,,,,,
2017,08,22,08,26,00,286.3,,,,,,,,,,,,,,
2017,08,22,08,27,00,263.7,,,,,,,,,,,,,,
2017,08,22,08,28,00,273.1,,,,,,,,,,,,,,
2017,08,22,08,29,00,295.2,,,,,,,,,,,,,,
2017,08,22,08,30,00,293.9,,,,,,,,,,,,,,
2017,08,22,08,31,00,264.8,,,,,,,,,,,,,,
2017,08,22,08,32,00,251.2,,,,,,,,,,,,,,
2017,08,22,08,33,00,258.1,,,,,,,,,,,,,,
2017,08,22,08,34,00,258.9,,,,,,,,,,,,,,
2017,08,22,08,35,00,243.8,,,,,,,,,,,,,,
2017,08,22,08,36,00,234.7,,,,,,,,,,,,,,
2017,08,22,08,37,00,212.5,,,,,,,,,,,,,,
2017,08,22,08,38,00,179.0,,,,,,,,,,,,,,
2017,08,22,08,39,00,194.8,,,,,,,,,,,,,,
2017,08,22,08,40,00,215.1,,,,,,,,,,,,,,
2017,08,22,08,41,00,228.4,,,,,,,,,,,,,,
2017,08,22,08,42,00,216.1,,,,,,,,,,,,,,
2017,08,22,08,43,00,235.3,,,,,,,,,,,,,,
2017,08,22,08,44,00,228.8,,,,,,,,,,,,,,
2017,08,22,08,45,00,210.0,,,,,,,,,,,,,,
2017,08,22,08,46,00,229.3,,,,,,,,,,,,,,
2017,08,22,08,47,00,218.5,,,,,,,,,,,,,,
2017,08,22,08,48,00,247.8,,,,,,,,,,,,,,
2017,08,22,08,49,00,243.8,,,,,,,,,,,,,,
2017,08,22,08,50,00,248.0,,,,,,,,,,,,,,
2017,08,22,08,51,00,238.9,,,,,,,,,,,,,,
2017,08,22,08,52,00,231.0,,,,,,,,,,,,,,
2017,08,22,08,53,00,225.2,,,,,,,,,,,,,,
2017,08,22,08,54,00,258.6,,,,,,,,,,,,,,
2017,08,22,08,55,00,264.2,,,,,,,,,,,,,,
2017,08,22,08,56,00,262.6,,,,,,,,,,,,,,
2017,08,22,08,57,00,261.7,,,,,,,,,,,,,,
2017,08,22,08,58,00,284.5,,,,,,,,,,,,,,
2017,08,22,08,59,00,319.6,,,,,,,,,,,,,,
2017,08,22,09,00,00,322.1,,,,,,,,,,,,,,
2017,08,22,09,01,00,293.8,,,,,,,,,,,,,,
2017,08,22,09,02,00,320.0,,,,,,,,,,,,,,
2017,08,22,09,03,00,294.1,,,,,,,,,,,,,,
2017,08,22,09,04,00,320.1,,,,,,,,,,,,,,
2017,08,22,09,05,00,334.8,,,,,,,,,,,,,,
2017,08,22,09,06,00,325.9,,,,,,,,,,,,,,
2017,08,22,09,07,00,331.7,,,,,,,,,,,,,,
2017,08,22,09,08,00,269.6,,,,,,,,,,,,,,
2017,08,22,09,09,00,245.5,,,,,,,,,,,,,,
2017,08,22,09,10,00,241.6,,,,,,,,,,,,,,
2017,08,22,09,11,00,236.3,,,,,,,,,,,,,,
2017,08,22,09,12,00,239.7,,,,,,,,,,,,,,
2017,08,22,09,13,00,224.1,,,,,,,,,,,,,,
2017,08,22,09,14,00,219.3,,,,,,,,,,,,,,
2017,08,22,09,15,00,202.7,,,,,,,,,,,,,,
2017,08,22,09,16,00,198.9,,,,,,,,,,,,,,
2017,08,22,09,17,00,205.9,,,,,,,,,,,,,,
2017,08,22,09,18,00,164.5,,,,,,,,,,,,,,
2017,08,22,09,19,00,187.4,,,,,,,,,,,,,,
2017,08,22,09,20,00,205.5,,,,,,,,,,,,,,
2017,08,22,09,21,00,180.0,,,,,,,,,,,,,,
2017,08,22,09,22,00,168.8,,,,,,,,,,,,,,
2017,08,22,09,23,00,165.4,,,,,,,,,,,,,,
2017,08,22,09,24,00,151.9,,,,,,,,,,,,,,
2017,08,22,09,25,00,151.8,,,,,,,,,,,,,,
2017,08,22,09,26,00,156.3,,,,,,,,,,,,,,
2017,08,22,09,27,00,167.0,,,,,,,,,,,,,,
2017,08,22,09,28,00,175.6,,,,,,,,,,,,,,
2017,08,22,09,29,00,176.9,,,,,,,,,,,,,,
2017,08,22,09,30,00,185.2,,,,,,,,,,,,,,
2017,08,22,09,31,00,198.3,,,,,,,,,,,,,,
2017,08,22,09,32,00,221.2,,,,,,,,,,,,,,
2017,08,22,09,33,00,215.7,,,,,,,,,,,,,,
2017,08,22,09,34,00,208.0,,,,,,,,,,,,,,
2017,08,22,09,35,00,206.2,,,,,,,,,,,,,,
2017,08,22,09,36,00,222.2,,,,,,,,,,,,,,
2017,08,22,09,37,00,223.7,,,,,,,,,,,,,,
2017,08,22,09,38,00,247.3,,,,,,,,,,,,,,
2017,08,22,09,39,00,223.7,,,,,,,,,,,,,,
2017,08,22,09,40,00,250.8,,,,,,,,,,,,,,
2017,08,22,09,41,00,246.6,,,,,,,,,,,,,,
2017,08,22,09,42,00,218.6,,,,,,,,,,,,,,
2017,08,22,09,43,00,191.3,,,,,,,,,,,,,,
2017,08,22,09,44,00,168.8,,,,,,,,,,,,,,
2017,08,22,09,45,00,133.3,,,,,,,,,,,,,,
2017,08,22,09,46,00,143.6,,,,,,,,,,,,,,
2017,08,22,09,47,00,204.7,,,,,,,,,,,,,,
2017,08,22,09,48,00,200.6,,,,,,,,,,,,,,
2017,08,22,09,49,00,211.5,,,,,,,,,,,,,,
2017,08,22,09,50,00,232.8,,,,,,,,,,,,,,
2017,08,22,09,51,00,223.6,,,,,,,,,,,,,,